| time (UTC) | temp F | wind direction | speed knots | gust knots | rain 1hr in | rain 24hr in | rain mn in | humidity % | barometer mb |
| 20260906145527 | 66 | 80 | 0.9 | 3.5 | 0.00 | 0.00 | 0.00 | 91 | 1023.7 |
| 20260906145026 | 66 | 75 | 0.9 | 3.5 | 0.00 | 0.00 | 0.00 | 91 | 1023.7 |
| 20260906144524 | 66 | 82 | 1.7 | 4.3 | 0.00 | 0.00 | 0.00 | 92 | 1023.7 |
| 20260906144023 | 65 | 86 | 1.7 | 3.5 | 0.00 | 0.00 | 0.00 | 94 | 1023.8 |
| 20260906143522 | 64 | 84 | 1.7 | 3.5 | 0.00 | 0.00 | 0.00 | 95 | 1023.6 |
| 20260906143021 | 64 | 77 | 1.7 | 3.5 | 0.00 | 0.00 | 0.00 | 96 | 1023.7 |
| 20260906142519 | 63 | 92 | 1.7 | 3.5 | 0.00 | 0.00 | 0.00 | 97 | 1023.6 |
| 20260906142018 | 63 | 100 | 1.7 | 3.5 | 0.00 | 0.00 | 0.00 | 99 | 1023.5 |
| 20260906141517 | 62 | 106 | 1.7 | 3.5 | 0.00 | 0.00 | 0.00 | 99 | 1023.6 |
| 20260906141035 | 62 | 95 | 1.7 | 3.5 | 0.00 | 0.00 | 0.00 | 99 | 1023.5 |
| 20260906140554 | 62 | 134 | 0.9 | 3.5 | 0.00 | 0.00 | 0.00 | 99 | 1023.5 |
| 20260906140032 | 61 | 92 | 1.7 | 4.3 | 0.00 | 0.00 | 0.00 | 99 | 1023.7 |
| 20260906135551 | 61 | 97 | 0.9 | 2.6 | 0.00 | 0.00 | 0.00 | 99 | 1023.8 |
| 20260906135030 | 61 | 109 | 0.9 | 2.6 | 0.00 | 0.00 | 0.00 | 99 | 1023.8 |
| 20260906134528 | 60 | 96 | 1.7 | 3.5 | 0.00 | 0.00 | 0.00 | 99 | 1023.8 |
| 20260906134027 | 60 | 101 | 1.7 | 3.5 | 0.00 | 0.00 | 0.00 | 99 | 1023.9 |
| 20260906133526 | 59 | 104 | 0.9 | 2.6 | 0.00 | 0.00 | 0.00 | 99 | 1024.0 |
| 20260906133104 | 59 | 96 | 1.7 | 2.6 | 0.00 | 0.00 | 0.00 | 99 | 1023.9 |
| 20260906132522 | 59 | 101 | 1.7 | 2.6 | 0.00 | 0.00 | 0.00 | 99 | 1023.8 |
| 20260906132021 | 58 | 115 | 1.7 | 2.6 | 0.00 | 0.00 | 0.00 | 99 | 1023.9 |
| 20260906131519 | 58 | 104 | 1.7 | 2.6 | 0.00 | 0.00 | 0.00 | 99 | 1023.8 |
| 20260906131018 | 58 | 106 | 1.7 | 3.5 | 0.00 | 0.00 | 0.00 | 99 | 1023.8 |
| 20260906130517 | 58 | 105 | 1.7 | 3.5 | 0.00 | 0.00 | 0.00 | 99 | 1023.6 |
| 20260906130016 | 57 | 110 | 1.7 | 2.6 | 0.00 | 0.00 | 0.00 | 99 | 1023.6 |
| 20260906125534 | 57 | 103 | 1.7 | 2.6 | 0.00 | 0.00 | 0.00 | 99 | 1023.5 |
| 20260906125033 | 57 | 93 | 1.7 | 3.5 | 0.00 | 0.00 | 0.00 | 99 | 1023.5 |
| 20260906124531 | 57 | 91 | 1.7 | 2.6 | 0.00 | 0.00 | 0.00 | 99 | 1023.5 |
| 20260906124050 | 57 | 96 | 2.6 | 2.6 | 0.00 | 0.00 | 0.00 | 99 | 1023.5 |
| 20260906123528 | 57 | 108 | 2.6 | 3.5 | 0.00 | 0.00 | 0.00 | 99 | 1023.4 |
| 20260906123028 | 57 | 100 | 1.7 | 3.5 | 0.00 | 0.00 | 0.00 | 99 | 1023.3 |
| 20260906122526 | 57 | 105 | 2.6 | 3.5 | 0.00 | 0.00 | 0.00 | 99 | 1023.3 |
| 20260906122044 | 56 | 110 | 2.6 | 3.5 | 0.00 | 0.00 | 0.00 | 99 | 1023.3 |
| 20260906121543 | 56 | 110 | 2.6 | 3.5 | 0.00 | 0.00 | 0.00 | 99 | 1023.2 |
| 20260906121021 | 56 | 107 | 2.6 | 3.5 | 0.00 | 0.00 | 0.00 | 99 | 1023.1 |
| 20260906120520 | 56 | 106 | 2.6 | 3.5 | 0.00 | 0.00 | 0.00 | 99 | 1023.0 |
| 20260906120019 | 56 | 103 | 2.6 | 3.5 | 0.00 | 0.00 | 0.00 | 99 | 1022.9 |
| 20260906115538 | 56 | 89 | 2.6 | 3.5 | 0.00 | 0.00 | 0.00 | 99 | 1022.7 |
| 20260906115016 | 56 | 101 | 2.6 | 3.5 | 0.00 | 0.00 | 0.00 | 99 | 1022.7 |
| 20260906114535 | 56 | 102 | 1.7 | 3.5 | 0.00 | 0.00 | 0.00 | 99 | 1022.7 |
| 20260906114033 | 56 | 119 | 1.7 | 3.5 | 0.00 | 0.00 | 0.00 | 99 | 1022.7 |
| 20260906113633 | 56 | 107 | 1.7 | 3.5 | 0.00 | 0.00 | 0.00 | 99 | 1022.7 |
| 20260906113031 | 56 | 112 | 1.7 | 3.5 | 0.00 | 0.00 | 0.00 | 99 | 1022.8 |
| 20260906112529 | 56 | 94 | 1.7 | 3.5 | 0.00 | 0.00 | 0.00 | 99 | 1022.8 |
| 20260906112029 | 56 | 110 | 2.6 | 3.5 | 0.00 | 0.00 | 0.00 | 99 | 1022.9 |
| 20260906111526 | 56 | 101 | 2.6 | 3.5 | 0.00 | 0.00 | 0.00 | 99 | 1022.8 |
| 20260906111025 | 57 | 108 | 2.6 | 3.5 | 0.00 | 0.00 | 0.00 | 99 | 1022.7 |
| 20260906110523 | 57 | 101 | 2.6 | 3.5 | 0.00 | 0.00 | 0.00 | 99 | 1022.5 |
| 20260906110022 | 57 | 115 | 2.6 | 4.3 | 0.00 | 0.00 | 0.00 | 99 | 1022.6 |
| 20260906105520 | 57 | 111 | 1.7 | 3.5 | 0.00 | 0.00 | 0.00 | 99 | 1022.6 |
| 20260906105019 | 57 | 103 | 1.7 | 3.5 | 0.00 | 0.00 | 0.00 | 99 | 1022.5 |
| 20260906104538 | 57 | 103 | 2.6 | 3.5 | 0.00 | 0.00 | 0.00 | 99 | 1022.5 |
| 20260906104016 | 57 | 98 | 2.6 | 4.3 | 0.00 | 0.00 | 0.00 | 99 | 1022.5 |
| 20260906103535 | 57 | 109 | 2.6 | 3.5 | 0.00 | 0.00 | 0.00 | 99 | 1022.5 |
| 20260906103033 | 57 | 103 | 2.6 | 3.5 | 0.00 | 0.00 | 0.00 | 99 | 1022.5 |
| 20260906102532 | 57 | 107 | 2.6 | 3.5 | 0.00 | 0.00 | 0.00 | 99 | 1022.4 |
| 20260906102111 | 57 | 109 | 1.7 | 3.5 | 0.00 | 0.00 | 0.00 | 99 | 1022.3 |
| 20260906101529 | 57 | 99 | 2.6 | 4.3 | 0.00 | 0.00 | 0.00 | 99 | 1022.4 |
| 20260906101027 | 57 | 98 | 2.6 | 3.5 | 0.00 | 0.00 | 0.00 | 99 | 1022.3 |
| 20260906100527 | 57 | 108 | 2.6 | 3.5 | 0.00 | 0.00 | 0.00 | 99 | 1022.3 |
| 20260906100025 | 57 | 99 | 1.7 | 3.5 | 0.00 | 0.00 | 0.00 | 99 | 1022.3 |
| 20260906095523 | 57 | 96 | 1.7 | 3.5 | 0.00 | 0.00 | 0.00 | 99 | 1022.2 |
| 20260906095042 | 58 | 103 | 1.7 | 3.5 | 0.00 | 0.00 | 0.00 | 99 | 1022.3 |
| 20260906094520 | 58 | 80 | 1.7 | 3.5 | 0.00 | 0.00 | 0.00 | 99 | 1022.2 |
| 20260906094039 | 58 | 110 | 1.7 | 3.5 | 0.00 | 0.00 | 0.00 | 99 | 1022.2 |
| 20260906093518 | 58 | 67 | 1.7 | 5.2 | 0.00 | 0.00 | 0.00 | 99 | 1022.1 |
| 20260906093016 | 58 | 110 | 2.6 | 4.3 | 0.00 | 0.00 | 0.00 | 99 | 1022.3 |
| 20260906092535 | 58 | 106 | 1.7 | 3.5 | 0.00 | 0.00 | 0.00 | 99 | 1022.4 |
| 20260906092034 | 58 | 119 | 2.6 | 3.5 | 0.00 | 0.00 | 0.00 | 99 | 1022.4 |
| 20260906091532 | 58 | 103 | 1.7 | 4.3 | 0.00 | 0.00 | 0.00 | 99 | 1022.5 |
| 20260906091030 | 58 | 103 | 2.6 | 4.3 | 0.00 | 0.00 | 0.00 | 99 | 1022.5 |
| 20260906090549 | 58 | 110 | 2.6 | 4.3 | 0.00 | 0.00 | 0.00 | 99 | 1022.6 |
| 20260906090028 | 58 | 104 | 1.7 | 4.3 | 0.00 | 0.00 | 0.00 | 99 | 1022.7 |
| 20260906085526 | 58 | 107 | 2.6 | 5.2 | 0.00 | 0.00 | 0.00 | 99 | 1022.6 |
| 20260906085025 | 59 | 84 | 2.6 | 5.2 | 0.00 | 0.00 | 0.00 | 99 | 1022.5 |
| 20260906084524 | 59 | 98 | 2.6 | 5.2 | 0.00 | 0.00 | 0.00 | 99 | 1022.4 |
| 20260906084022 | 59 | 113 | 1.7 | 3.5 | 0.00 | 0.00 | 0.00 | 99 | 1022.1 |
| 20260906083520 | 59 | 106 | 1.7 | 3.5 | 0.00 | 0.00 | 0.00 | 99 | 1022.2 |
| 20260906083040 | 59 | 91 | 2.6 | 3.5 | 0.00 | 0.00 | 0.00 | 99 | 1022.1 |
| 20260906082538 | 59 | 124 | 2.6 | 4.3 | 0.00 | 0.00 | 0.00 | 99 | 1022.4 |
| 20260906082017 | 59 | 110 | 1.7 | 5.2 | 0.00 | 0.00 | 0.00 | 99 | 1022.3 |
| 20260906081535 | 59 | 106 | 1.7 | 3.5 | 0.00 | 0.00 | 0.00 | 99 | 1022.2 |
| 20260906081114 | 59 | 123 | 1.7 | 2.6 | 0.00 | 0.00 | 0.00 | 99 | 1022.1 |
| 20260906080532 | 59 | 114 | 1.7 | 2.6 | 0.00 | 0.00 | 0.00 | 99 | 1022.2 |
| 20260906080032 | 59 | 109 | 1.7 | 2.6 | 0.00 | 0.00 | 0.00 | 99 | 1022.4 |
| 20260906075529 | 59 | 102 | 1.7 | 2.6 | 0.00 | 0.00 | 0.00 | 99 | 1022.4 |
| 20260906075028 | 59 | 104 | 1.7 | 2.6 | 0.00 | 0.00 | 0.00 | 99 | 1022.2 |
| 20260906074526 | 59 | 100 | 1.7 | 1.7 | 0.00 | 0.00 | 0.00 | 99 | 1022.1 |
| 20260906074046 | 59 | 87 | 1.7 | 1.7 | 0.00 | 0.00 | 0.00 | 99 | 1022.0 |
| 20260906073523 | 60 | 97 | 1.7 | 2.6 | 0.00 | 0.00 | 0.00 | 99 | 1022.0 |
| 20260906073022 | 60 | 100 | 1.7 | 2.6 | 0.00 | 0.00 | 0.00 | 99 | 1022.0 |
| 20260906072520 | 60 | 100 | 1.7 | 2.6 | 0.00 | 0.00 | 0.00 | 99 | 1022.0 |
| 20260906072019 | 60 | 96 | 1.7 | 2.6 | 0.00 | 0.00 | 0.00 | 99 | 1022.0 |
| 20260906071517 | 60 | 99 | 1.7 | 1.7 | 0.00 | 0.00 | 0.00 | 99 | 1022.1 |
| 20260906071015 | 60 | 98 | 1.7 | 1.7 | 0.00 | 0.00 | 0.00 | 99 | 1022.1 |
| 20260906070534 | 60 | 96 | 1.7 | 1.7 | 0.00 | 0.00 | 0.00 | 99 | 1022.2 |
| 20260906070033 | 60 | 98 | 1.7 | 2.6 | 0.00 | 0.00 | 0.00 | 99 | 1022.2 |
| 20260906065531 | 61 | 98 | 1.7 | 2.6 | 0.00 | 0.00 | 0.00 | 99 | 1022.3 |
| 20260906065030 | 61 | 103 | 1.7 | 2.6 | 0.00 | 0.00 | 0.00 | 99 | 1022.3 |
| 20260906064608 | 61 | 108 | 1.7 | 1.7 | 0.00 | 0.00 | 0.00 | 99 | 1022.4 |
| 20260906064027 | 61 | 109 | 1.7 | 2.6 | 0.00 | 0.00 | 0.00 | 99 | 1022.5 |
| 20260906063526 | 61 | 107 | 2.6 | 3.5 | 0.00 | 0.00 | 0.00 | 99 | 1022.4 |
| 20260906063044 | 61 | 110 | 2.6 | 3.5 | 0.00 | 0.00 | 0.00 | 99 | 1022.4 |
| 20260906062523 | 61 | 107 | 2.6 | 2.6 | 0.00 | 0.00 | 0.00 | 99 | 1022.3 |
| 20260906062041 | 61 | 109 | 1.7 | 2.6 | 0.00 | 0.00 | 0.00 | 99 | 1022.1 |
| 20260906061520 | 61 | 109 | 2.6 | 2.6 | 0.00 | 0.00 | 0.00 | 99 | 1022.1 |
| 20260906061018 | 61 | 104 | 1.7 | 1.7 | 0.00 | 0.00 | 0.00 | 99 | 1022.0 |
| 20260906060517 | 61 | 105 | 1.7 | 2.6 | 0.00 | 0.00 | 0.00 | 99 | 1021.9 |
| 20260906060016 | 61 | 109 | 2.6 | 2.6 | 0.00 | 0.00 | 0.00 | 99 | 1021.9 |
| 20260906055554 | 61 | 113 | 1.7 | 2.6 | 0.00 | 0.00 | 0.00 | 99 | 1021.9 |
| 20260906055033 | 61 | 116 | 1.7 | 2.6 | 0.00 | 0.00 | 0.00 | 99 | 1021.9 |
| 20260906054531 | 61 | 107 | 1.7 | 2.6 | 0.00 | 0.00 | 0.00 | 99 | 1021.9 |
| 20260906054029 | 61 | 103 | 1.7 | 2.6 | 0.00 | 0.00 | 0.00 | 99 | 1021.7 |
| 20260906053528 | 61 | 104 | 2.6 | 2.6 | 0.00 | 0.00 | 0.00 | 99 | 1021.7 |
| 20260906053027 | 61 | 105 | 1.7 | 2.6 | 0.00 | 0.00 | 0.00 | 99 | 1021.6 |
| 20260906052526 | 61 | 108 | 1.7 | 1.7 | 0.00 | 0.00 | 0.00 | 99 | 1021.5 |
| 20260906052024 | 61 | 108 | 1.7 | 2.6 | 0.00 | 0.00 | 0.00 | 99 | 1021.4 |
| 20260906051523 | 61 | 109 | 1.7 | 2.6 | 0.00 | 0.00 | 0.00 | 99 | 1021.5 |
| 20260906051022 | 61 | 100 | 0.9 | 1.7 | 0.00 | 0.00 | 0.00 | 99 | 1021.5 |
| 20260906050520 | 61 | 100 | 0.9 | 1.7 | 0.00 | 0.00 | 0.00 | 99 | 1021.6 |
| 20260906050018 | 61 | 101 | 1.7 | 1.7 | 0.00 | 0.00 | 0.00 | 99 | 1021.7 |
| 20260906045537 | 61 | 105 | 1.7 | 1.7 | 0.00 | 0.00 | 0.00 | 99 | 1021.6 |
| 20260906045016 | 61 | 111 | 1.7 | 2.6 | 0.00 | 0.00 | 0.00 | 99 | 1021.6 |
| 20260906044534 | 61 | 108 | 1.7 | 1.7 | 0.00 | 0.00 | 0.00 | 99 | 1021.6 |
| 20260906044033 | 61 | 109 | 1.7 | 2.6 | 0.00 | 0.00 | 0.00 | 99 | 1021.5 |
| 20260906043531 | 61 | 109 | 1.7 | 2.6 | 0.00 | 0.00 | 0.00 | 99 | 1021.4 |
| 20260906043030 | 61 | 107 | 1.7 | 2.6 | 0.00 | 0.00 | 0.00 | 99 | 1021.3 |
| 20260906042528 | 62 | 110 | 1.7 | 2.6 | 0.00 | 0.00 | 0.00 | 99 | 1021.4 |
| 20260906042047 | 62 | 106 | 1.7 | 1.7 | 0.00 | 0.00 | 0.00 | 99 | 1021.3 |
| 20260906041525 | 62 | 102 | 1.7 | 2.6 | 0.00 | 0.00 | 0.00 | 99 | 1021.2 |
| 20260906041044 | 62 | 100 | 1.7 | 2.6 | 0.00 | 0.00 | 0.00 | 99 | 1021.1 |
| 20260906040523 | 62 | 100 | 1.7 | 1.7 | 0.00 | 0.00 | 0.00 | 99 | 1021.0 |
| 20260906040041 | 62 | 103 | 1.7 | 2.6 | 0.00 | 0.00 | 0.00 | 99 | 1021.0 |
| 20260906035520 | 62 | 101 | 1.7 | 2.6 | 0.00 | 0.00 | 0.00 | 99 | 1020.9 |
| 20260906035019 | 62 | 100 | 1.7 | 1.7 | 0.00 | 0.00 | 0.00 | 99 | 1020.8 |
| 20260906034517 | 63 | 93 | 1.7 | 1.7 | 0.00 | 0.00 | 0.00 | 99 | 1020.8 |
| 20260906034016 | 63 | 93 | 1.7 | 1.7 | 0.00 | 0.00 | 0.00 | 99 | 1020.9 |
| 20260906033534 | 63 | 94 | 1.7 | 1.7 | 0.00 | 0.00 | 0.00 | 99 | 1021.0 |
| 20260906033033 | 63 | 96 | 0.9 | 1.7 | 0.00 | 0.00 | 0.00 | 99 | 1021.0 |
| 20260906032531 | 63 | 95 | 0.9 | 1.7 | 0.00 | 0.00 | 0.00 | 99 | 1020.9 |
| 20260906032030 | 63 | 104 | 0.9 | 1.7 | 0.00 | 0.00 | 0.00 | 99 | 1020.8 |
| 20260906031528 | 63 | 93 | 0.9 | 1.7 | 0.00 | 0.00 | 0.00 | 99 | 1020.6 |
| 20260906031026 | 63 | 89 | 0.9 | 1.7 | 0.00 | 0.00 | 0.00 | 99 | 1020.6 |
| 20260906030525 | 63 | 83 | 0.9 | 1.7 | 0.00 | 0.00 | 0.00 | 98 | 1020.8 |
| 20260906030023 | 63 | 89 | 0.9 | 1.7 | 0.00 | 0.00 | 0.00 | 98 | 1020.8 |
| 20260906025522 | 63 | 90 | 0.9 | 1.7 | 0.00 | 0.00 | 0.00 | 98 | 1020.9 |
| 20260906025020 | 64 | 81 | 1.7 | 1.7 | 0.00 | 0.00 | 0.00 | 98 | 1020.7 |
| 20260906024519 | 64 | 81 | 0.9 | 1.7 | 0.00 | 0.00 | 0.00 | 98 | 1020.8 |
| 20260906024017 | 64 | 97 | 0.9 | 1.7 | 0.00 | 0.00 | 0.00 | 98 | 1020.7 |
| 20260906023516 | 64 | 99 | 1.7 | 1.7 | 0.00 | 0.00 | 0.00 | 98 | 1020.8 |
| 20260906023034 | 64 | 105 | 1.7 | 2.6 | 0.00 | 0.00 | 0.00 | 98 | 1020.8 |
| 20260906022533 | 64 | 111 | 1.7 | 2.6 | 0.00 | 0.00 | 0.00 | 98 | 1020.8 |
| 20260906022031 | 64 | 112 | 1.7 | 2.6 | 0.00 | 0.00 | 0.00 | 98 | 1020.8 |
| 20260906021550 | 64 | 110 | 1.7 | 1.7 | 0.00 | 0.00 | 0.00 | 98 | 1020.7 |
| 20260906021029 | 64 | 100 | 0.9 | 1.7 | 0.00 | 0.00 | 0.00 | 98 | 1020.6 |
| 20260906020527 | 64 | 102 | 0.9 | 1.7 | 0.00 | 0.00 | 0.00 | 98 | 1020.4 |
| 20260906020025 | 65 | 100 | 0.9 | 1.7 | 0.00 | 0.00 | 0.00 | 97 | 1020.5 |
| 20260906015524 | 65 | 99 | 0.9 | 1.7 | 0.00 | 0.00 | 0.00 | 97 | 1020.4 |
| 20260906015023 | 65 | 102 | 1.7 | 1.7 | 0.00 | 0.00 | 0.00 | 97 | 1020.4 |
| 20260906014521 | 65 | 102 | 1.7 | 1.7 | 0.00 | 0.00 | 0.00 | 97 | 1020.4 |
| 20260906014020 | 65 | 101 | 0.9 | 1.7 | 0.00 | 0.00 | 0.00 | 96 | 1020.4 |
| 20260906013519 | 65 | 98 | 1.7 | 1.7 | 0.00 | 0.00 | 0.00 | 96 | 1020.3 |
| 20260906013017 | 65 | 102 | 1.7 | 1.7 | 0.00 | 0.00 | 0.00 | 96 | 1020.3 |
| 20260906012516 | 65 | 101 | 0.9 | 1.7 | 0.00 | 0.00 | 0.00 | 95 | 1020.3 |
| 20260906012035 | 66 | 99 | 0.9 | 1.7 | 0.00 | 0.00 | 0.00 | 95 | 1020.1 |
| 20260906011533 | 66 | 99 | 0.9 | 1.7 | 0.00 | 0.00 | 0.00 | 95 | 1020.2 |
| 20260906011032 | 66 | 98 | 1.7 | 2.6 | 0.00 | 0.00 | 0.00 | 95 | 1020.1 |
| 20260906010531 | 66 | 105 | 0.9 | 1.7 | 0.00 | 0.00 | 0.00 | 94 | 1020.1 |
| 20260906010029 | 66 | 114 | 0.9 | 1.7 | 0.00 | 0.00 | 0.00 | 93 | 1020.1 |
| 20260906005549 | 67 | 115 | 0.9 | 1.7 | 0.00 | 0.00 | 0.00 | 93 | 1020.1 |
| 20260906005027 | 67 | 111 | 0.9 | 1.7 | 0.00 | 0.00 | 0.00 | 92 | 1020.0 |
| 20260906004525 | 67 | 110 | 0.9 | 1.7 | 0.00 | 0.00 | 0.00 | 92 | 1020.0 |
| 20260906004023 | 68 | 118 | 0.9 | 1.7 | 0.00 | 0.00 | 0.00 | 92 | 1020.0 |
| 20260906003643 | 68 | 105 | 1.7 | 2.6 | 0.00 | 0.00 | 0.00 | 91 | 1020.1 |
| 20260906003021 | 68 | 105 | 0.9 | 1.7 | 0.00 | 0.00 | 0.00 | 91 | 1020.1 |
| 20260906002519 | 68 | 115 | 0.9 | 1.7 | 0.00 | 0.00 | 0.00 | 90 | 1020.0 |
| 20260906002018 | 69 | 114 | 0.9 | 1.7 | 0.00 | 0.00 | 0.00 | 90 | 1020.0 |
| 20260906001537 | 69 | 113 | 0.0 | 0.9 | 0.00 | 0.00 | 0.00 | 89 | 1020.1 |
| 20260906001035 | 69 | 109 | 0.9 | 1.7 | 0.00 | 0.00 | 0.00 | 89 | 1020.0 |
| 20260906000533 | 70 | 100 | 0.9 | 1.7 | 0.00 | 0.00 | 0.00 | 87 | 1020.1 |
| 20260906000032 | 70 | 95 | 0.9 | 1.7 | 0.00 | 0.00 | 0.00 | 86 | 1020.0 |
| 20260905235530 | 70 | 95 | 0.9 | 1.7 | 0.00 | 0.00 | 0.00 | 86 | 1020.0 |
| 20260905235030 | 70 | 102 | 0.9 | 0.9 | 0.00 | 0.00 | 0.00 | 85 | 1019.9 |
| 20260905234528 | 71 | 103 | 0.9 | 1.7 | 0.00 | 0.00 | 0.00 | 86 | 1019.9 |
| 20260905234026 | 71 | 115 | 0.9 | 1.7 | 0.00 | 0.00 | 0.00 | 85 | 1020.0 |
| 20260905233525 | 71 | 103 | 0.0 | 1.7 | 0.00 | 0.00 | 0.00 | 84 | 1020.1 |
| 20260905233024 | 72 | 98 | 0.9 | 1.7 | 0.00 | 0.00 | 0.00 | 83 | 1020.0 |
| 20260905232522 | 72 | 112 | 0.9 | 1.7 | 0.00 | 0.00 | 0.00 | 82 | 1019.9 |
| 20260905232141 | 72 | 104 | 0.9 | 1.7 | 0.00 | 0.00 | 0.00 | 82 | 1019.8 |
| 20260905231519 | 73 | 107 | 0.9 | 1.7 | 0.00 | 0.00 | 0.00 | 80 | 1019.9 |
| 20260905231038 | 73 | 98 | 1.7 | 1.7 | 0.00 | 0.00 | 0.00 | 78 | 1019.9 |
| 20260905230516 | 74 | 94 | 1.7 | 1.7 | 0.00 | 0.00 | 0.00 | 78 | 1020.0 |
| 20260905230055 | 74 | 104 | 0.9 | 1.7 | 0.00 | 0.00 | 0.00 | 77 | 1020.0 |
| 20260905225533 | 74 | 109 | 1.7 | 2.6 | 0.00 | 0.00 | 0.00 | 78 | 1020.1 |
| 20260905225032 | 74 | 99 | 1.7 | 3.5 | 0.00 | 0.00 | 0.00 | 76 | 1020.1 |
| 20260905224530 | 75 | 91 | 1.7 | 1.7 | 0.00 | 0.00 | 0.00 | 75 | 1020.1 |
| 20260905224028 | 76 | 86 | 0.9 | 2.6 | 0.00 | 0.00 | 0.00 | 74 | 1020.3 |
| 20260905223527 | 77 | 85 | 1.7 | 2.6 | 0.00 | 0.00 | 0.00 | 71 | 1020.4 |
| 20260905223026 | 77 | 105 | 1.7 | 3.5 | 0.00 | 0.00 | 0.00 | 69 | 1020.2 |
| 20260905222524 | 76 | 88 | 0.9 | 2.6 | 0.00 | 0.00 | 0.00 | 71 | 1020.2 |
| 20260905222023 | 76 | 84 | 0.9 | 2.6 | 0.00 | 0.00 | 0.00 | 70 | 1020.2 |
| 20260905221541 | 77 | 97 | 1.7 | 3.5 | 0.00 | 0.00 | 0.00 | 68 | 1020.2 |
| 20260905221020 | 76 | 102 | 1.7 | 2.6 | 0.00 | 0.00 | 0.00 | 69 | 1020.1 |
| 20260905220539 | 75 | 86 | 0.9 | 2.6 | 0.00 | 0.00 | 0.00 | 72 | 1020.0 |
| 20260905220017 | 76 | 86 | 0.9 | 1.7 | 0.00 | 0.00 | 0.00 | 71 | 1020.1 |
| 20260905215515 | 77 | 88 | 1.7 | 1.7 | 0.00 | 0.00 | 0.00 | 68 | 1020.1 |
| 20260905215054 | 77 | 96 | 1.7 | 3.5 | 0.00 | 0.00 | 0.00 | 70 | 1020.0 |
| 20260905214533 | 76 | 92 | 0.9 | 3.5 | 0.00 | 0.00 | 0.00 | 69 | 1020.0 |
| 20260905214031 | 76 | 121 | 0.9 | 3.5 | 0.00 | 0.00 | 0.00 | 71 | 1020.0 |
| 20260905213529 | 75 | 78 | 0.9 | 2.6 | 0.00 | 0.00 | 0.00 | 72 | 1019.9 |
| 20260905213028 | 76 | 88 | 0.9 | 3.5 | 0.00 | 0.00 | 0.00 | 70 | 1019.9 |
| 20260905212527 | 76 | 109 | 1.7 | 2.6 | 0.00 | 0.00 | 0.00 | 70 | 1019.9 |
| 20260905212025 | 74 | 87 | 0.9 | 3.5 | 0.00 | 0.00 | 0.00 | 73 | 1020.0 |
| 20260905211524 | 73 | 73 | 0.9 | 2.6 | 0.00 | 0.00 | 0.00 | 74 | 1020.1 |
| 20260905211022 | 74 | 81 | 1.7 | 1.7 | 0.00 | 0.00 | 0.00 | 72 | 1020.1 |
| 20260905210521 | 74 | 103 | 1.7 | 3.5 | 0.00 | 0.00 | 0.00 | 73 | 1020.1 |
| 20260905210019 | 75 | 107 | 1.7 | 2.6 | 0.00 | 0.00 | 0.00 | 74 | 1020.3 |
| 20260905205538 | 74 | 113 | 0.9 | 3.5 | 0.00 | 0.00 | 0.00 | 76 | 1020.2 |
| 20260905205016 | 73 | 81 | 1.7 | 3.5 | 0.00 | 0.00 | 0.00 | 75 | 1020.4 |
| 20260905204535 | 73 | 95 | 1.7 | 3.5 | 0.00 | 0.00 | 0.00 | 75 | 1020.4 |
| 20260905204033 | 71 | 84 | 0.9 | 1.7 | 0.00 | 0.00 | 0.00 | 78 | 1020.4 |
| 20260905203612 | 72 | 86 | 1.7 | 2.6 | 0.00 | 0.00 | 0.00 | 78 | 1020.5 |
| 20260905203051 | 72 | 85 | 1.7 | 1.7 | 0.00 | 0.00 | 0.00 | 78 | 1020.6 |
| 20260905202529 | 72 | 66 | 0.9 | 2.6 | 0.00 | 0.00 | 0.00 | 80 | 1020.6 |
| 20260905202028 | 73 | 95 | 0.0 | 0.9 | 0.00 | 0.00 | 0.00 | 78 | 1020.7 |
| 20260905201526 | 73 | 101 | 1.7 | 3.5 | 0.00 | 0.00 | 0.00 | 76 | 1020.7 |
| 20260905201025 | 71 | 76 | 1.7 | 3.5 | 0.00 | 0.00 | 0.00 | 78 | 1020.6 |
| 20260905200523 | 71 | 59 | 1.7 | 3.5 | 0.00 | 0.00 | 0.00 | 80 | 1020.6 |
| 20260905200022 | 70 | 60 | 0.9 | 2.6 | 0.00 | 0.00 | 0.00 | 81 | 1020.6 |
| 20260905195520 | 70 | 77 | 1.7 | 2.6 | 0.00 | 0.00 | 0.00 | 81 | 1020.6 |
| 20260905195019 | 70 | 90 | 1.7 | 2.6 | 0.00 | 0.00 | 0.00 | 83 | 1020.7 |
| 20260905194517 | 70 | 81 | 0.9 | 1.7 | 0.00 | 0.00 | 0.00 | 84 | 1020.9 |
| 20260905194016 | 70 | 99 | 0.9 | 1.7 | 0.00 | 0.00 | 0.00 | 85 | 1020.7 |
| 20260905193614 | 70 | 84 | 0.9 | 3.5 | 0.00 | 0.00 | 0.00 | 86 | 1020.7 |
| 20260905193033 | 70 | 88 | 0.9 | 1.7 | 0.00 | 0.00 | 0.00 | 86 | 1020.8 |
| 20260905192531 | 70 | 93 | 0.9 | 1.7 | 0.00 | 0.00 | 0.00 | 86 | 1020.8 |
| 20260905192030 | 70 | 84 | 0.9 | 1.7 | 0.00 | 0.00 | 0.00 | 85 | 1020.7 |
| 20260905191528 | 70 | 89 | 0.9 | 1.7 | 0.00 | 0.00 | 0.00 | 85 | 1020.7 |
| 20260905191027 | 70 | 94 | 0.9 | 1.7 | 0.00 | 0.00 | 0.00 | 84 | 1020.7 |
| 20260905190545 | 70 | 109 | 0.9 | 2.6 | 0.00 | 0.00 | 0.00 | 85 | 1020.8 |
| 20260905190044 | 70 | 90 | 0.9 | 1.7 | 0.00 | 0.00 | 0.00 | 86 | 1020.8 |
| 20260905185522 | 71 | 102 | 0.9 | 3.5 | 0.00 | 0.00 | 0.00 | 85 | 1020.8 |
| 20260905185021 | 70 | 134 | 0.9 | 2.6 | 0.00 | 0.00 | 0.00 | 86 | 1020.8 |
| 20260905184539 | 70 | 69 | 2.6 | 5.2 | 0.00 | 0.00 | 0.00 | 86 | 1020.5 |
| 20260905184017 | 70 | 86 | 1.7 | 3.5 | 0.00 | 0.00 | 0.00 | 85 | 1020.6 |
| 20260905183516 | 70 | 115 | 1.7 | 3.5 | 0.00 | 0.00 | 0.00 | 85 | 1020.6 |
| 20260905183034 | 70 | 68 | 1.7 | 3.5 | 0.00 | 0.00 | 0.00 | 86 | 1020.7 |
| 20260905182533 | 70 | 109 | 1.7 | 3.5 | 0.00 | 0.00 | 0.00 | 86 | 1020.7 |
| 20260905182032 | 70 | 105 | 0.9 | 3.5 | 0.00 | 0.00 | 0.00 | 86 | 1020.7 |
| 20260905181530 | 70 | 69 | 1.7 | 3.5 | 0.00 | 0.00 | 0.00 | 85 | 1020.9 |
| 20260905181029 | 70 | 128 | 0.9 | 2.6 | 0.00 | 0.00 | 0.00 | 85 | 1020.9 |
| 20260905180527 | 69 | 114 | 0.9 | 3.5 | 0.00 | 0.00 | 0.00 | 86 | 1020.9 |
| 20260905180026 | 70 | 123 | 0.9 | 2.6 | 0.00 | 0.00 | 0.00 | 86 | 1020.9 |
| 20260905175544 | 70 | 96 | 1.7 | 3.5 | 0.00 | 0.00 | 0.00 | 86 | 1020.9 |
| 20260905175023 | 70 | 100 | 1.7 | 2.6 | 0.00 | 0.00 | 0.00 | 86 | 1020.8 |
| 20260905174521 | 69 | 96 | 0.9 | 3.5 | 0.00 | 0.00 | 0.00 | 88 | 1020.9 |
| 20260905174019 | 70 | 85 | 0.9 | 2.6 | 0.00 | 0.00 | 0.00 | 88 | 1020.9 |
| 20260905173518 | 70 | 86 | 1.7 | 3.5 | 0.00 | 0.00 | 0.00 | 86 | 1020.9 |
| 20260905173017 | 69 | 91 | 1.7 | 3.5 | 0.00 | 0.00 | 0.00 | 87 | 1020.8 |
| 20260905172515 | 70 | 97 | 1.7 | 3.5 | 0.00 | 0.00 | 0.00 | 86 | 1020.9 |
| 20260905172034 | 70 | 96 | 0.9 | 3.5 | 0.00 | 0.00 | 0.00 | 87 | 1020.8 |
| 20260905171532 | 70 | 95 | 0.9 | 2.6 | 0.00 | 0.00 | 0.00 | 86 | 1020.9 |
| 20260905171031 | 70 | 114 | 1.7 | 2.6 | 0.00 | 0.00 | 0.00 | 86 | 1020.7 |
| 20260905170530 | 70 | 92 | 1.7 | 4.3 | 0.00 | 0.00 | 0.00 | 86 | 1020.8 |
| 20260905170029 | 70 | 84 | 1.7 | 3.5 | 0.00 | 0.00 | 0.00 | 86 | 1020.8 |
| 20260905165527 | 70 | 92 | 1.7 | 4.3 | 0.00 | 0.00 | 0.00 | 86 | 1020.8 |
| 20260905165026 | 70 | 93 | 1.7 | 3.5 | 0.00 | 0.00 | 0.00 | 88 | 1020.7 |
| 20260905164524 | 70 | 91 | 0.9 | 3.5 | 0.00 | 0.00 | 0.00 | 87 | 1020.9 |
| 20260905164023 | 70 | 74 | 0.9 | 4.3 | 0.00 | 0.00 | 0.00 | 86 | 1020.8 |
| 20260905163521 | 70 | 105 | 1.7 | 3.5 | 0.00 | 0.00 | 0.00 | 86 | 1020.9 |
| 20260905163020 | 70 | 113 | 1.7 | 4.3 | 0.00 | 0.00 | 0.00 | 86 | 1020.8 |
| 20260905162519 | 70 | 114 | 0.9 | 2.6 | 0.00 | 0.00 | 0.00 | 87 | 1020.7 |
| 20260905162017 | 70 | 112 | 0.9 | 1.7 | 0.00 | 0.00 | 0.00 | 87 | 1020.7 |
| 20260905161515 | 70 | 134 | 0.9 | 2.6 | 0.00 | 0.00 | 0.00 | 86 | 1020.8 |
| 20260905161034 | 69 | 95 | 0.9 | 4.3 | 0.00 | 0.00 | 0.00 | 87 | 1020.9 |
| 20260905160532 | 69 | 90 | 2.6 | 4.3 | 0.00 | 0.00 | 0.00 | 87 | 1020.9 |
| 20260905160031 | 69 | 68 | 1.7 | 3.5 | 0.00 | 0.00 | 0.00 | 88 | 1020.9 |
| 20260905155530 | 69 | 100 | 1.7 | 3.5 | 0.00 | 0.00 | 0.00 | 88 | 1020.8 |
| 20260905155028 | 68 | 81 | 1.7 | 2.6 | 0.00 | 0.00 | 0.00 | 90 | 1020.8 |
| 20260905154527 | 68 | 105 | 1.7 | 4.3 | 0.00 | 0.00 | 0.00 | 89 | 1020.7 |
| 20260905154045 | 68 | 93 | 0.9 | 2.6 | 0.00 | 0.00 | 0.00 | 91 | 1020.7 |
| 20260905153524 | 68 | 114 | 0.0 | 1.7 | 0.00 | 0.00 | 0.00 | 91 | 1020.7 |
| 20260905153043 | 68 | 123 | 0.9 | 3.5 | 0.00 | 0.00 | 0.00 | 91 | 1020.6 |
| 20260905152521 | 67 | 89 | 0.9 | 3.5 | 0.00 | 0.00 | 0.00 | 92 | 1020.5 |
| 20260905152020 | 68 | 84 | 1.7 | 3.5 | 0.00 | 0.00 | 0.00 | 91 | 1020.5 |
| 20260905151518 | 68 | 88 | 1.7 | 4.3 | 0.00 | 0.00 | 0.00 | 91 | 1020.4 |
| 20260905151017 | 67 | 103 | 1.7 | 5.2 | 0.00 | 0.00 | 0.00 | 92 | 1020.4 |
| 20260905150515 | 67 | 97 | 1.7 | 5.2 | 0.00 | 0.00 | 0.00 | 93 | 1020.2 |
| 20260905150034 | 67 | 87 | 1.7 | 3.5 | 0.00 | 0.00 | 0.00 | 93 | 1020.0 |